Weather History for West Plains, MO

Change the Weather History Date:

Thursday, December 27, 2012

  Actual Average Record
Temperature  
Mean Temperature 25 °F 34 °F  
Max Temperature 33 °F 45 °F 74 °F (1971)
Min Temperature 17 °F 24 °F 8 °F (2002)
Degree Days  
Heating Degree Days 40 31  
Month to date heating degree days 583 771  
Since 1 July heating degree days 1527 1623  
Cooling Degree Days 0 0  
Month to date cooling degree days 0 0  
Year to date cooling degree days 1739 1354  
Moisture  
Dew Point 20 °F    
Average Humidity 73    
Maximum Humidity 84    
Minimum Humidity 61    
Precipitation  
Precipitation 0.00 in 0.08 in 2.44 in (1968)
Month to date precipitation 1.80 3.37  
Year to date precipitation 31.72 45.95  
Sea Level Pressure  
Sea Level Pressure 30.12 in    
Wind  
Wind Speed 5 mph (SE)    
Max Wind Speed 14 mph    
Max Gust Speed -    
Visibility 10 miles    
Events      
T = Trace of Precipitation, MM = Missing Value Source: NWS Daily Summary

Daily Weather History Graph

Daily Weather History Graph

Search for Another Location

Airport:

Trip Planner

Search our weather history database for the weather conditions in past years. The results will help you decide how hot, cold, wet, or windy it might be!

Date:

Astronomy

Dec. 27, 2012 Rise Set
Actual Time 7:19 AM CST 4:58 PM CST
Civil Twilight 6:50 AM CST 5:27 PM CST
Nautical Twilight 6:18 AM CST 6:00 PM CST
Astronomical Twilight 5:46 AM CST 6:31 PM CST
Moon 4:41 PM CST 6:31 AM CST
Length of Visible Light 10h 37m
Length of Day
9h 39m
Full, 100% of the Moon is Illuminated
Dec 27
Full
Dec 28
Full
Jan 4
Last Quarter
Jan 11
New
Jan 18
First Quarter

Hourly Weather History & Observations

Time (CST) Temp. Windchill Dew Point Humidity Pressure Visibility Wind Dir Wind Speed Gust Speed Precip Events Conditions
12:53 AM 21.9 °F - 17.1 °F 82% 30.16 in 10.0 mi Calm Calm - N/A   Clear
1:53 AM 21.9 °F - 17.1 °F 82% 30.17 in 10.0 mi Calm Calm - N/A   Clear
2:53 AM 19.9 °F - 16.0 °F 85% 30.16 in 10.0 mi Calm Calm - N/A   Clear
3:53 AM 19.0 °F - 15.1 °F 85% 30.17 in 10.0 mi Calm Calm - N/A   Clear
4:53 AM 18.0 °F - 14.0 °F 84% 30.18 in 8.0 mi Calm Calm - N/A   Clear
5:53 AM 19.0 °F - 15.1 °F 85% 30.17 in 6.0 mi Calm Calm - N/A   Clear
6:53 AM 19.9 °F 14.9 °F 16.0 °F 85% 30.17 in 8.0 mi East 3.5 mph - N/A   Clear
7:53 AM 23.0 °F - 18.0 °F 81% 30.18 in 10.0 mi Calm Calm - N/A   Clear
8:53 AM 25.0 °F - 19.9 °F 81% 30.19 in 10.0 mi Calm Calm - N/A   Clear
9:53 AM 28.0 °F 20.8 °F 21.0 °F 75% 30.19 in 10.0 mi SE 6.9 mph - N/A   Clear
10:53 AM 30.0 °F 21.7 °F 21.0 °F 69% 30.18 in 10.0 mi SE 9.2 mph - N/A   Clear
11:53 AM 32.0 °F 24.2 °F 23.0 °F 69% 30.14 in 10.0 mi SSE 9.2 mph - N/A   Clear
12:53 PM 33.1 °F 24.9 °F 23.0 °F 66% 30.11 in 10.0 mi SSE 10.4 mph - N/A   Partly Cloudy
1:53 PM 33.1 °F 26.1 °F 23.0 °F 66% 30.08 in 10.0 mi SSE 8.1 mph - N/A   Clear
2:53 PM 33.1 °F 25.5 °F 21.9 °F 64% 30.07 in 10.0 mi SSE 9.2 mph - N/A   Clear
3:53 PM 32.0 °F 25.6 °F 23.0 °F 69% 30.08 in 10.0 mi SSE 6.9 mph - N/A   Clear
4:53 PM 30.9 °F 25.2 °F 23.0 °F 72% 30.07 in 10.0 mi SE 5.8 mph - N/A   Clear
6:53 PM 28.9 °F 22.8 °F 21.9 °F 75% 30.06 in 10.0 mi SE 5.8 mph - N/A   Clear
7:53 PM 28.0 °F 19.3 °F 21.9 °F 78% 30.06 in 10.0 mi ESE 9.2 mph - N/A   Partly Cloudy
8:53 PM 28.0 °F 21.7 °F 21.0 °F 75% 30.06 in 10.0 mi Variable 5.8 mph - N/A   Clear
9:53 PM 28.0 °F 24.2 °F 21.9 °F 78% 30.06 in 10.0 mi ESE 3.5 mph - N/A   Mostly Cloudy
10:10 PM 28.4 °F 22.2 °F 21.2 °F 74% 30.03 in 10.0 mi SE 5.8 mph - N/A   Overcast
10:53 PM 28.0 °F 22.8 °F 21.9 °F 78% 30.07 in 10.0 mi SE 4.6 mph - N/A   Overcast
11:53 PM 28.9 °F 21.9 °F 23.0 °F 78% 30.05 in 10.0 mi SE 6.9 mph - N/A   Overcast